Find Starlink 5298

NORAD ID: 55281 Int'l Des: 2023-010 Owner: SPXS Country: US Constellation: starlink operational
LEOCIRCULAR

現在のビュー

3D地球を読み込み中...

About Starlink 5298

Starlink 5298 (NORAD 55281) is a starlink constellation satellite (v1.5) launched Jan 19, 2023 by SPXS of US. It operates in LEO, CIRCULAR orbit with a mass of 305.00 kg.

次回通過

Passes for default location (London). Set your location on the main map for personalized predictions.

高度履歴

Loading altitude history...

軌道要素

1 55281U 23010N 26237.57414373 -.00000039 00000-0 45503-5 0 9996
2 55281 70.0006 338.6203 0003338 270.1076 89.9700 14.98333565198076
Epoch: Aug 25, 2026 • Age: 15 hours

現在のステータス

高度 576.5 km
遠地点 / 近地点 N/A
速度 7.57 km/s
衛星直下点 30.28°N, 97.53°E
打ち上げ日 Jan 19, 2023
運用期間 3.5 years
タイプ internet

技術仕様

分類 Payload
質量 305.00 kg
乾燥質量 290.00 kg
総質量 305.00 kg
長さ 0.20 m
直径 2.80 m
スパン 9.00 m
形状 Box + pan
製造者 SPXS
バスタイプ Starlink
フェーズステータス In Orbit
所有者/国 SPXS/US

Most Searched